Weather History for Hutchinson, KS

Change the Weather History Date:

Wednesday, January 9, 2013

  Actual Average Record
Temperature  
Mean Temperature 38 °F -  
Max Temperature 53 °F 40 °F 63 °F (2002)
Min Temperature 24 °F 17 °F 1 °F (1999)
Degree Days  
Heating Degree Days 26    
Moisture  
Dew Point 28 °F    
Average Humidity 64    
Maximum Humidity 88    
Minimum Humidity 41    
Precipitation  
Precipitation 0.00 in - - ()
Sea Level Pressure  
Sea Level Pressure 30.34 in    
Wind  
Wind Speed 5 mph (NNE)    
Max Wind Speed 12 mph    
Max Gust Speed -    
Visibility 10 miles    
Events      
Averages and records for this station are not official NWS values.
T = Trace of Precipitation, MM = Missing Value Source: NWS Daily Summary

Daily Weather History Graph

Daily Weather History Graph

Search for Another Location

Airport:

Trip Planner

Search our weather history database for the weather conditions in past years. The results will help you decide how hot, cold, wet, or windy it might be!

Date:

Astronomy

Jan. 09, 2013 Rise Set
Actual Time 7:47 AM CST 5:29 PM CST
Civil Twilight 7:18 AM CST 5:59 PM CST
Nautical Twilight 6:45 AM CST 6:31 PM CST
Astronomical Twilight 6:14 AM CST 7:03 PM CST
Moon 5:28 AM CST (1/9) 3:33 PM CST (1/9)
Length of Visible Light 10h 40m
Length of Day
9h 42m
Waning Crescent, 6% of the Moon is Illuminated
Jan 9
Waning Crescent
Jan 11
New
Jan 18
First Quarter
Jan 26
Full
Feb 3
Last Quarter

Hourly Weather History & Observations

Time (CST) Temp. Windchill Dew Point Humidity Pressure Visibility Wind Dir Wind Speed Gust Speed Precip Events Conditions
1:52 AM 25.0 °F - 21.0 °F 85% 30.26 in 9.0 mi Calm Calm - N/A   Clear
2:52 AM 25.0 °F 17.1 °F 21.0 °F 85% 30.26 in 8.0 mi NW 6.9 mph - N/A   Clear
3:52 AM 25.0 °F 19.3 °F 21.0 °F 85% 30.28 in 9.0 mi NNW 4.6 mph - N/A   Clear
4:52 AM 24.1 °F 18.2 °F 21.0 °F 88% 30.29 in 8.0 mi NW 4.6 mph - N/A   Clear
5:52 AM 26.1 °F 21.9 °F 21.9 °F 84% 30.31 in 10.0 mi WNW 3.5 mph - N/A   Clear
7:52 AM 24.1 °F 19.7 °F 19.9 °F 84% 30.40 in 9.0 mi NW 3.5 mph - N/A   Clear
8:52 AM 28.9 °F 21.9 °F 25.0 °F 85% 30.42 in 9.0 mi NW 6.9 mph - N/A   Clear
9:52 AM 39.9 °F 35.8 °F 30.0 °F 68% 30.42 in 10.0 mi SSE 5.8 mph - N/A   Clear
10:52 AM 45.0 °F 43.5 °F 30.9 °F 58% 30.43 in 10.0 mi NE 3.5 mph - N/A   Clear
11:52 AM 48.0 °F - 30.9 °F 52% 30.42 in 10.0 mi ENE 3.5 mph - N/A   Clear
12:52 PM 51.1 °F - 30.0 °F 44% 30.38 in 10.0 mi Variable 3.5 mph - N/A   Clear
1:52 PM 53.1 °F - 30.0 °F 41% 30.36 in 10.0 mi North 5.8 mph - N/A   Clear
2:52 PM 52.0 °F - 30.0 °F 43% 30.35 in 10.0 mi ENE 6.9 mph - N/A   Clear
3:52 PM 51.1 °F - 30.9 °F 46% 30.36 in 10.0 mi ENE 4.6 mph - N/A   Clear
4:52 PM 48.9 °F - 30.9 °F 50% 30.35 in 10.0 mi NE 3.5 mph - N/A   Clear
5:52 PM 46.0 °F 44.8 °F 30.9 °F 56% 30.36 in 10.0 mi NE 3.5 mph - N/A   Clear
6:52 PM 45.0 °F 41.8 °F 32.0 °F 60% 30.34 in 10.0 mi NE 5.8 mph - N/A   Clear
7:52 PM 44.1 °F 39.0 °F 30.9 °F 60% 30.34 in 10.0 mi ENE 9.2 mph - N/A   Clear
8:52 PM 44.1 °F 39.5 °F 30.0 °F 58% 30.32 in 10.0 mi ENE 8.1 mph - N/A   Clear
9:52 PM 45.0 °F 39.3 °F 30.0 °F 56% 30.28 in 10.0 mi ENE 11.5 mph - N/A   Overcast
10:52 PM 43.0 °F 37.7 °F 30.9 °F 62% 30.27 in 10.0 mi ENE 9.2 mph - N/A   Overcast
11:52 PM 44.1 °F 39.0 °F 32.0 °F 63% 30.25 in 10.0 mi ENE 9.2 mph - N/A   Overcast